Philadelphia, PA

2:48 AM EST on November 19, 2019 (GMT -0500)
Philadelphia International

Weather History for KPHL - September, 2019

Change the Weather History Date:

Friday, September 13, 2019

  Actual Average Record
Temperature  
Mean Temperature 68 °F 70 °F  
Max Temperature 73 °F 79 °F 95 °F (1952)
Min Temperature 63 °F 62 °F 44 °F (1958)
Degree Days  
Heating Degree Days 0 1  
Month to date heating degree days 0 2  
Since 1 July heating degree days 0 3  
Cooling Degree Days 3 6  
Month to date cooling degree days 118 99  
Year to date cooling degree days 1452 1216  
Growing Degree Days 18 (Base 50)    
Moisture  
Dew Point 54 °F    
Average Humidity 65    
Maximum Humidity 81    
Minimum Humidity 49    
Precipitation  
Precipitation 0.00 in 0.13 in 2.80 in (1944)
Month to date precipitation 0.61 1.54  
Year to date precipitation 36.64 29.56  
Snow  
Snow 0.00 in 0.00 in 0.00 in ()
Month to date snowfall 0.0 0.0  
Since 1 July snowfall 0.0 0.0  
Since 1 September snowfall 0.0 0.0  
Snow Depth 0.00 in    
Sea Level Pressure  
Sea Level Pressure 30.38 in    
Wind  
Wind Speed 12 mph (ENE)    
Max Wind Speed 21 mph    
Max Gust Speed 26 mph    
Visibility 10 miles    
Events      
T = Trace of Precipitation, MM = Missing Value Source: NWS Daily Summary

Daily Weather History Graph

Daily Weather History Graph

Search for Another Location

Airport or City:

Astronomy

Sep. 13, 2019 Rise Set
Actual Time 6:39 AM EDT 7:13 PM EDT
Civil Twilight 6:12 AM EDT 7:40 PM EDT
Nautical Twilight 5:40 AM EDT 8:12 PM EDT
Astronomical Twilight 5:07 AM EDT 8:45 PM EDT
Moon 7:25 PM EDT (9/13) 5:54 AM EDT (9/13)
Length of Visible Light 13h 27m
Length of Day
12h 33m
Full, 100% of the Moon is Illuminated
Sep 13
Full
Sep 14
Full
Sep 21
Last Quarter
Sep 28
New
Oct 5
First Quarter

Hourly Weather History & Observations

Time (EDT) Temp. Dew Point Humidity Pressure Visibility Wind Dir Wind Speed Gust Speed Precip Events Conditions
12:54 AM 66.0 °F 61.0 °F 84% 30.27 in 10.0 mi East 15.0 mph - N/A   Overcast
1:21 AM 66.0 °F 60.1 °F 81% 30.28 in 10.0 mi East 15.0 mph 25.3 mph N/A   Mostly Cloudy
1:54 AM 66.0 °F 59.0 °F 78% 30.28 in 10.0 mi ENE 16.1 mph 23.0 mph N/A   Overcast
2:32 AM 64.9 °F 57.9 °F 78% 30.28 in 10.0 mi ENE 9.2 mph - N/A   Overcast
2:54 AM 64.9 °F 57.9 °F 78% 30.28 in 10.0 mi ENE 9.2 mph - N/A   Overcast
3:37 AM 64.0 °F 57.0 °F 78% 30.30 in 10.0 mi NE 9.2 mph - N/A   Overcast
3:54 AM 64.0 °F 55.9 °F 75% 30.30 in 10.0 mi ENE 8.1 mph 20.7 mph N/A   Overcast
4:49 AM 64.4 °F 55.4 °F 73% 30.32 in 10.0 mi NE 12.7 mph - N/A   Overcast
4:54 AM 64.0 °F 55.0 °F 73% 30.32 in 10.0 mi ENE 10.4 mph - N/A   Overcast
5:54 AM 63.0 °F 54.0 °F 72% 30.34 in 10.0 mi ENE 10.4 mph - N/A   Overcast
6:54 AM 63.0 °F 52.0 °F 67% 30.35 in 10.0 mi ENE 11.5 mph 20.7 mph N/A   Overcast
7:54 AM 63.0 °F 53.1 °F 70% 30.38 in 10.0 mi NE 11.5 mph - N/A   Overcast
8:54 AM 64.0 °F 53.1 °F 67% 30.40 in 10.0 mi ENE 9.2 mph - N/A   Overcast
9:54 AM 66.0 °F 54.0 °F 65% 30.41 in 10.0 mi NE 11.5 mph - N/A   Overcast
10:54 AM 66.9 °F 55.0 °F 66% 30.43 in 10.0 mi ENE 11.5 mph 20.7 mph N/A   Overcast
11:09 AM 66.9 °F 55.0 °F 66% 30.42 in 10.0 mi NE 12.7 mph - N/A   Overcast
11:42 AM 68.0 °F 55.0 °F 63% 30.43 in 10.0 mi East 12.7 mph 20.7 mph N/A   Overcast
11:54 AM 68.0 °F 55.0 °F 63% 30.43 in 10.0 mi East 11.5 mph - N/A   Overcast
12:54 PM 68.0 °F 53.1 °F 59% 30.44 in 10.0 mi East 16.1 mph - N/A   Overcast
1:54 PM 72.0 °F 51.1 °F 48% 30.43 in 10.0 mi ESE 16.1 mph 24.2 mph N/A   Overcast
2:54 PM 71.1 °F 52.0 °F 51% 30.42 in 10.0 mi East 12.7 mph - N/A   Overcast
3:54 PM 70.0 °F 50.0 °F 49% 30.42 in 10.0 mi East 16.1 mph 21.9 mph N/A   Overcast
4:54 PM 69.1 °F 51.1 °F 53% 30.42 in 10.0 mi East 17.3 mph - N/A   Overcast
5:54 PM 69.1 °F 52.0 °F 54% 30.42 in 10.0 mi East 12.7 mph - N/A   Mostly Cloudy
6:54 PM 68.0 °F 51.1 °F 55% 30.41 in 10.0 mi East 16.1 mph - N/A   Mostly Cloudy
7:54 PM 66.0 °F 51.1 °F 59% 30.42 in 10.0 mi ESE 10.4 mph - N/A   Mostly Cloudy
8:54 PM 64.9 °F 51.1 °F 61% 30.42 in 10.0 mi East 9.2 mph - N/A   Mostly Cloudy
9:54 PM 64.9 °F 51.1 °F 61% 30.41 in 10.0 mi East 8.1 mph - N/A   Mostly Cloudy
10:54 PM 64.0 °F 52.0 °F 65% 30.40 in 10.0 mi East 9.2 mph - N/A   Scattered Clouds
11:54 PM 63.0 °F 52.0 °F 67% 30.39 in 10.0 mi East 6.9 mph - N/A   Scattered Clouds